Find OneWeb SL0372

NORAD ID: 49298 Int'l Des: 2021-090 Owner: ONEWEBN Country: UK Constellation: oneweb operational
LEOCIRCULARPOLARONEWEB_TYPE

リアルタイム位置

3D地球を読み込み中...

OneWeb SL0372について

説明を読み込み中...

次回通過

Passes for default location (London). Set your location on the main map for personalized predictions.

高度履歴

Loading altitude history...

軌道要素

1 49298U 21090V 26125.66177690 -.00000032 00000-0 -11090-3 0 9993
2 49298 87.9154 282.9249 0001798 95.7894 264.3444 13.20773688224225
Epoch: May 5, 2026 • Age: 9 hours

現在のステータス

高度 1189.4 km
速度 7.26 km/s
衛星直下点 -18.42°S, 45.04°E
打ち上げ日 Oct 14, 2021
運用期間 4.5 years
タイプ internet

技術仕様

分類 Payload
質量 148.00 kg
乾燥質量 140.00 kg
総質量 148.00 kg
長さ 1.30 m
直径 1.00 m
スパン 5.00 m
形状 Trapezoid+2 pan
製造者 ONEWUS
バスタイプ ARROW
フェーズステータス In Orbit
所有者/国 ONEWEBN/UK

Most Searched